Other Surface Observations
Issued by NWS Upton, NY

Home | Current Version | Previous Version | Text Only | Print | Product List | Glossary On
Versions: 1 2 3 4 5 6 7 8 9 10 11 12 13 14 15 16 17 18 19 20 21 22 23 24 25 26 27 28 29 30 31 32 33 34 35 36 37 38 39 40 41 42 43 44 45 46 47 48 49 50
686
SXUS51 KOKX 160757
OSOOKX
NEW YORK CITY METROPOLITAN AREA WEATHER ROUNDUP
National Weather Service New York NY
300 AM EST SAT DEC 16 2017

CITY           SKY/WX    TMP DP  RH WIND       PRES   REMARKS
Central Park   CLEAR     24  17  74 W9G21     29.96R WCI  14
LaGuardia APRT PTCLDY    27  18  69 W16G25    29.94R WCI  15
Kennedy INTL   PTCLDY    25  19  78 W15       29.97R WCI  13
Newark Liberty PTCLDY    23  18  81 W12       29.96R WCI  12
Teterboro APRT CLEAR     21  15  78 S6        29.95R WCI  13
Bronx Bot Gard   N/A     27  18  69 NW5       29.95R WCI  21
Bronx Lehman C   N/A     27  18  69 W9          N/A  WCI  17
Queens College   N/A     27  19  74 W14         N/A  WCI  15
Breezy Point     N/A    N/A N/A N/A W14G25      N/A
Brooklyn Coll    N/A     27  19  74 W13         N/A  WCI  16
Staten Island    N/A     23  19  86 W5          N/A  WCI  17

>>>>>>>>>>>>>>>>>>>>>>>>>>>>>>>>> KEY <<<<<<<<<<<<<<<<<<<<<<<<<<<<<<<
> SKY/WX - SKY CONDITION/PRESENT    : R : WCI - WIND CHILL INDEX    <
>          WEATHER                  : E : VSB - VISIBILITY IN MILES <
> TMP    - TEMPERATURE IN DEG F     : M : HX  - HEAT INDEX          <
> DP     - DEW POINT TEMPERATURE    : A : TC  - TEMPERATURE IN      <
> RH     - RELATIVE HUMIDITY        : R :       CELSIUS             <
> WIND   - DIRECTION/SPEED (MPH)    : K : VRB - VARIABLE WIND  DIR  <
> PRES   - PRESSURE (IN HG)         : S :                           <
>>>>>>>>>>>>>>>>>>>>>>>>>>>>>>>>> KEY <<<<<<<<<<<<<<<<<<<<<<<<<<<<<<<




USA.gov is the U.S. government's official web portal to all federal, state and local government web resources and services.